#datetime,building,power
2023-03-18T00:00:00,pth,2.40
2023-03-18T00:02:00,pth,2.40
2023-03-18T00:04:00,pth,2.40
2023-03-18T00:06:00,pth,1.20
2023-03-18T00:08:00,pth,2.40
2023-03-18T00:09:00,pth,1.20
2023-03-18T00:11:00,pth,2.40
2023-03-18T00:14:00,pth,2.40
2023-03-18T00:15:00,pth,1.20
2023-03-18T00:17:00,pth,2.40
2023-03-18T00:19:00,pth,1.20
2023-03-18T00:21:00,pth,2.40
2023-03-18T00:22:00,pth,1.20
2023-03-18T00:24:00,pth,2.40
2023-03-18T00:25:00,pth,1.20
2023-03-18T00:26:00,pth,1.20
2023-03-18T00:29:00,pth,3.60
2023-03-18T00:31:00,pth,3.60
2023-03-18T00:33:00,pth,3.60
2023-03-18T00:34:00,pth,2.40
2023-03-18T00:36:00,pth,3.60
2023-03-18T00:37:00,pth,2.40
2023-03-18T00:39:00,pth,1.20
2023-03-18T00:41:00,pth,2.40
2023-03-18T00:43:00,pth,2.40
2023-03-18T00:46:00,pth,1.20
2023-03-18T00:47:00,pth,2.40
2023-03-18T00:50:00,pth,3.60
2023-03-18T00:52:00,pth,1.20
2023-03-18T00:53:00,pth,1.20
2023-03-18T00:55:00,pth,2.40
2023-03-18T00:57:00,pth,1.20
2023-03-18T00:59:00,pth,2.40
2023-03-18T01:01:00,pth,2.40
2023-03-18T01:04:00,pth,2.40
2023-03-18T01:06:00,pth,2.40
2023-03-18T01:07:00,pth,1.20
2023-03-18T01:09:00,pth,2.40
2023-03-18T01:10:00,pth,2.40
2023-03-18T01:11:00,pth,2.40
2023-03-18T01:14:00,pth,4.80
2023-03-18T01:15:00,pth,2.40
2023-03-18T01:16:00,pth,2.40
2023-03-18T01:19:00,pth,3.60
2023-03-18T01:21:00,pth,2.40
2023-03-18T01:22:00,pth,1.20
2023-03-18T01:24:00,pth,2.40
2023-03-18T01:26:00,pth,2.40
2023-03-18T01:27:00,pth,1.20
2023-03-18T01:29:00,pth,2.40
2023-03-18T01:31:00,pth,1.20
2023-03-18T01:32:00,pth,1.20
2023-03-18T01:35:00,pth,2.40
2023-03-18T01:36:00,pth,1.20
2023-03-18T01:37:00,pth,1.20
2023-03-18T01:38:00,pth,1.20
2023-03-18T01:40:00,pth,1.20
2023-03-18T01:41:00,pth,1.20
2023-03-18T01:44:00,pth,6.00
2023-03-18T01:46:00,pth,3.60
2023-03-18T01:49:00,pth,3.60
2023-03-18T01:50:00,pth,2.40
2023-03-18T01:53:00,pth,1.20
2023-03-18T01:55:00,pth,2.40
2023-03-18T01:57:00,pth,2.40
2023-03-18T01:59:00,pth,1.20
2023-03-18T02:00:00,pth,1.20
2023-03-18T02:01:00,pth,1.20
2023-03-18T02:03:00,pth,2.40
2023-03-18T02:06:00,pth,1.20
2023-03-18T02:07:00,pth,1.20
2023-03-18T02:08:00,pth,1.20
2023-03-18T02:09:00,pth,2.40
2023-03-18T02:11:00,pth,2.40
2023-03-18T02:12:00,pth,1.20
2023-03-18T02:14:00,pth,3.60
2023-03-18T02:16:00,pth,4.80
2023-03-18T02:18:00,pth,3.60
2023-03-18T02:19:00,pth,1.20
2023-03-18T02:21:00,pth,1.20
2023-03-18T02:22:00,pth,1.20
2023-03-18T02:24:00,pth,1.20
2023-03-18T02:25:00,pth,1.20
2023-03-18T02:26:00,pth,1.20
2023-03-18T02:27:00,pth,2.40
2023-03-18T02:31:00,pth,3.60
2023-03-18T02:33:00,pth,1.20
2023-03-18T02:36:00,pth,1.20
2023-03-18T02:37:00,pth,2.40
2023-03-18T02:38:00,pth,1.20
2023-03-18T02:40:00,pth,1.20
2023-03-18T02:41:00,pth,1.20
2023-03-18T02:43:00,pth,4.80
2023-03-18T02:45:00,pth,1.20
2023-03-18T02:46:00,pth,4.80
2023-03-18T02:48:00,pth,2.40
2023-03-18T02:50:00,pth,3.60
2023-03-18T02:51:00,pth,2.40
2023-03-18T02:54:00,pth,2.40
2023-03-18T02:55:00,pth,2.40
2023-03-18T02:58:00,pth,2.40
2023-03-18T02:59:00,pth,1.20
2023-03-18T03:02:00,pth,2.40
2023-03-18T03:03:00,pth,1.20
2023-03-18T03:04:00,pth,1.20
2023-03-18T03:06:00,pth,2.40
2023-03-18T03:09:00,pth,2.40
2023-03-18T03:10:00,pth,1.20
2023-03-18T03:11:00,pth,1.20
2023-03-18T03:13:00,pth,3.60
2023-03-18T03:16:00,pth,3.60
2023-03-18T03:18:00,pth,6.00
2023-03-18T03:19:00,pth,2.40
2023-03-18T03:22:00,pth,2.40
2023-03-18T03:23:00,pth,2.40
2023-03-18T03:27:00,pth,2.40
2023-03-18T03:28:00,pth,2.40
2023-03-18T03:30:00,pth,1.20
2023-03-18T03:32:00,pth,1.20
2023-03-18T03:34:00,pth,2.40
2023-03-18T03:36:00,pth,1.20
2023-03-18T03:37:00,pth,1.20
2023-03-18T03:39:00,pth,2.40
2023-03-18T03:40:00,pth,1.20
2023-03-18T03:41:00,pth,3.60
2023-03-18T03:44:00,pth,3.60
2023-03-18T03:45:00,pth,3.60
2023-03-18T03:47:00,pth,2.40
2023-03-18T03:48:00,pth,2.40
2023-03-18T03:51:00,pth,2.40
2023-03-18T03:52:00,pth,1.20
2023-03-18T03:55:00,pth,2.40
2023-03-18T03:58:00,pth,2.40
2023-03-18T04:00:00,pth,2.40
2023-03-18T04:03:00,pth,1.20
2023-03-18T04:05:00,pth,2.40
2023-03-18T04:07:00,pth,2.40
2023-03-18T04:08:00,pth,1.20
2023-03-18T04:10:00,pth,4.80
2023-03-18T04:12:00,pth,3.60
2023-03-18T04:13:00,pth,1.20
2023-03-18T04:15:00,pth,3.60
2023-03-18T04:16:00,pth,1.20
2023-03-18T04:17:00,pth,1.20
2023-03-18T04:19:00,pth,1.20
2023-03-18T04:21:00,pth,2.40
2023-03-18T04:23:00,pth,1.20
2023-03-18T04:25:00,pth,2.40
2023-03-18T04:26:00,pth,1.20
2023-03-18T04:28:00,pth,1.20
2023-03-18T04:30:00,pth,1.20
2023-03-18T04:31:00,pth,1.20
2023-03-18T04:33:00,pth,2.40
2023-03-18T04:34:00,pth,2.40
2023-03-18T04:36:00,pth,3.60
2023-03-18T04:37:00,pth,1.20
2023-03-18T04:39:00,pth,4.80
2023-03-18T04:40:00,pth,1.20
2023-03-18T04:42:00,pth,2.40
2023-03-18T04:44:00,pth,2.40
2023-03-18T04:45:00,pth,1.20
2023-03-18T04:47:00,pth,2.40
2023-03-18T04:49:00,pth,1.20
2023-03-18T04:50:00,pth,1.20
2023-03-18T04:52:00,pth,2.40
2023-03-18T04:54:00,pth,1.20
2023-03-18T04:56:00,pth,2.40
2023-03-18T04:57:00,pth,1.20
2023-03-18T04:58:00,pth,1.20
2023-03-18T05:00:00,pth,3.60
2023-03-18T05:02:00,pth,3.60
2023-03-18T05:04:00,pth,3.60
2023-03-18T05:05:00,pth,2.40
2023-03-18T05:07:00,pth,3.60
2023-03-18T05:09:00,pth,2.40
2023-03-18T05:11:00,pth,2.40
2023-03-18T05:13:00,pth,1.20
2023-03-18T05:14:00,pth,1.20
2023-03-18T05:16:00,pth,2.40
2023-03-18T05:18:00,pth,1.20
2023-03-18T05:19:00,pth,1.20
2023-03-18T05:21:00,pth,2.40
2023-03-18T05:24:00,pth,2.40
2023-03-18T05:25:00,pth,1.20
2023-03-18T05:27:00,pth,3.60
2023-03-18T05:29:00,pth,4.80
2023-03-18T05:31:00,pth,3.60
2023-03-18T05:33:00,pth,3.60
2023-03-18T05:35:00,pth,2.40
2023-03-18T05:36:00,pth,1.20
2023-03-18T05:39:00,pth,2.40
2023-03-18T05:40:00,pth,1.20
2023-03-18T05:42:00,pth,1.20
2023-03-18T05:43:00,pth,1.20
2023-03-18T05:45:00,pth,2.40
2023-03-18T05:47:00,pth,1.20
2023-03-18T05:48:00,pth,1.20
2023-03-18T05:50:00,pth,2.40
2023-03-18T05:52:00,pth,3.60
2023-03-18T05:54:00,pth,3.60
2023-03-18T05:56:00,pth,3.60
2023-03-18T05:58:00,pth,3.60
2023-03-18T05:59:00,pth,1.20
2023-03-18T06:00:00,pth,1.20
2023-03-18T06:02:00,pth,1.20
2023-03-18T06:04:00,pth,2.40
2023-03-18T06:06:00,pth,2.40
2023-03-18T06:08:00,pth,1.20
2023-03-18T06:09:00,pth,1.20
2023-03-18T06:11:00,pth,1.20
2023-03-18T06:12:00,pth,1.20
2023-03-18T06:14:00,pth,2.40
2023-03-18T06:17:00,pth,4.80
2023-03-18T06:18:00,pth,1.20
2023-03-18T06:20:00,pth,4.80
2023-03-18T06:21:00,pth,4.80
2023-03-18T06:22:00,pth,3.60
2023-03-18T06:24:00,pth,3.60
2023-03-18T06:25:00,pth,1.20
2023-03-18T06:26:00,pth,1.20
2023-03-18T06:28:00,pth,2.40
2023-03-18T06:29:00,pth,1.20
2023-03-18T06:31:00,pth,1.20
2023-03-18T06:33:00,pth,2.40
2023-03-18T06:34:00,pth,1.20
2023-03-18T06:36:00,pth,1.20
2023-03-18T06:37:00,pth,1.20
2023-03-18T06:39:00,pth,2.40
2023-03-18T06:40:00,pth,1.20
2023-03-18T06:42:00,pth,4.80
2023-03-18T06:44:00,pth,3.60
2023-03-18T06:46:00,pth,4.80
2023-03-18T06:47:00,pth,2.40
2023-03-18T06:49:00,pth,4.80
2023-03-18T06:51:00,pth,3.60
2023-03-18T06:53:00,pth,1.20
2023-03-18T06:55:00,pth,2.40
2023-03-18T06:57:00,pth,1.20
2023-03-18T06:59:00,pth,2.40
2023-03-18T07:01:00,pth,1.20
2023-03-18T07:03:00,pth,2.40
2023-03-18T07:04:00,pth,1.20
2023-03-18T07:06:00,pth,1.20
2023-03-18T07:07:00,pth,2.40
2023-03-18T07:09:00,pth,3.60
2023-03-18T07:10:00,pth,2.40
2023-03-18T07:12:00,pth,3.60
2023-03-18T07:13:00,pth,2.40
2023-03-18T07:15:00,pth,3.60
2023-03-18T07:16:00,pth,2.40
2023-03-18T07:17:00,pth,1.20
2023-03-18T07:19:00,pth,1.20
2023-03-18T07:21:00,pth,2.40
2023-03-18T07:23:00,pth,1.20
2023-03-18T07:25:00,pth,1.20
2023-03-18T07:27:00,pth,1.20
2023-03-18T07:29:00,pth,1.20
2023-03-18T07:31:00,pth,2.40
2023-03-18T07:33:00,pth,3.60
2023-03-18T07:35:00,pth,3.60
2023-03-18T07:37:00,pth,3.60
2023-03-18T07:39:00,pth,2.40
2023-03-18T07:40:00,pth,2.40
2023-03-18T07:42:00,pth,2.40
2023-03-18T07:44:00,pth,1.20
2023-03-18T07:45:00,pth,1.20
2023-03-18T07:47:00,pth,1.20
2023-03-18T07:49:00,pth,2.40
2023-03-18T07:52:00,pth,2.40
2023-03-18T07:54:00,pth,1.20
2023-03-18T07:56:00,pth,1.20
2023-03-18T07:57:00,pth,1.20
2023-03-18T07:59:00,pth,3.60
2023-03-18T08:00:00,pth,1.20
2023-03-18T08:02:00,pth,3.60
2023-03-18T08:03:00,pth,1.20
2023-03-18T08:05:00,pth,3.60
2023-03-18T08:06:00,pth,2.40
2023-03-18T08:08:00,pth,1.20
2023-03-18T08:09:00,pth,1.20
2023-03-18T08:11:00,pth,1.20
2023-03-18T08:12:00,pth,1.20
2023-03-18T08:15:00,pth,2.40
2023-03-18T08:17:00,pth,1.20
2023-03-18T08:19:00,pth,1.20
2023-03-18T08:21:00,pth,1.20
2023-03-18T08:23:00,pth,1.20
2023-03-18T08:25:00,pth,3.60
2023-03-18T08:26:00,pth,2.40
2023-03-18T08:28:00,pth,3.60
2023-03-18T08:30:00,pth,2.40
2023-03-18T08:31:00,pth,2.40
2023-03-18T08:32:00,pth,1.20
2023-03-18T08:33:00,pth,2.40
2023-03-18T08:35:00,pth,1.20
2023-03-18T08:36:00,pth,1.20
2023-03-18T08:38:00,pth,2.40
2023-03-18T08:39:00,pth,1.20
2023-03-18T08:40:00,pth,1.20
2023-03-18T08:41:00,pth,1.20
2023-03-18T08:43:00,pth,2.40
2023-03-18T08:44:00,pth,1.20
2023-03-18T08:46:00,pth,3.60
2023-03-18T08:48:00,pth,2.40
2023-03-18T08:50:00,pth,4.80
2023-03-18T08:52:00,pth,4.80
2023-03-18T08:53:00,pth,4.80
2023-03-18T08:54:00,pth,4.80
2023-03-18T08:56:00,pth,4.80
2023-03-18T08:57:00,pth,3.60
2023-03-18T08:59:00,pth,3.60
2023-03-18T09:00:00,pth,2.40
2023-03-18T09:02:00,pth,1.20
2023-03-18T09:04:00,pth,2.40
2023-03-18T09:05:00,pth,1.20
2023-03-18T09:07:00,pth,3.60
2023-03-18T09:09:00,pth,2.40
2023-03-18T09:10:00,pth,2.40
2023-03-18T09:11:00,pth,1.20
2023-03-18T09:12:00,pth,2.40
2023-03-18T09:14:00,pth,4.80
2023-03-18T09:15:00,pth,2.40
2023-03-18T09:17:00,pth,6.00
2023-03-18T09:18:00,pth,3.60
2023-03-18T09:20:00,pth,7.20
2023-03-18T09:22:00,pth,8.40
2023-03-18T09:23:00,pth,4.80
2023-03-18T09:25:00,pth,4.80
2023-03-18T09:27:00,pth,4.80
2023-03-18T09:28:00,pth,1.20
2023-03-18T09:30:00,pth,4.80
2023-03-18T09:32:00,pth,3.60
2023-03-18T09:34:00,pth,3.60
2023-03-18T09:36:00,pth,3.60
2023-03-18T09:38:00,pth,3.60
2023-03-18T09:40:00,pth,2.40
2023-03-18T09:42:00,pth,3.60
2023-03-18T09:44:00,pth,7.20
2023-03-18T09:45:00,pth,2.40
2023-03-18T09:47:00,pth,4.80
2023-03-18T09:49:00,pth,3.60
2023-03-18T09:51:00,pth,2.40
2023-03-18T09:52:00,pth,1.20
2023-03-18T09:54:00,pth,1.20
2023-03-18T09:55:00,pth,4.80
2023-03-18T09:57:00,pth,13.20
2023-03-18T09:58:00,pth,6.00
2023-03-18T10:00:00,pth,14.40
2023-03-18T10:02:00,pth,15.60
2023-03-18T10:03:00,pth,7.20
2023-03-18T10:05:00,pth,15.60
2023-03-18T10:07:00,pth,15.60
2023-03-18T10:09:00,pth,14.40
2023-03-18T10:10:00,pth,4.80
2023-03-18T10:12:00,pth,14.40
2023-03-18T10:13:00,pth,4.80
2023-03-18T10:15:00,pth,14.40
2023-03-18T10:17:00,pth,10.80
2023-03-18T10:18:00,pth,7.20
2023-03-18T10:19:00,pth,7.20
2023-03-18T10:20:00,pth,3.60
2023-03-18T10:22:00,pth,15.60
2023-03-18T10:23:00,pth,3.60
2023-03-18T10:24:00,pth,8.40
2023-03-18T10:25:00,pth,7.20
2023-03-18T10:27:00,pth,10.80
2023-03-18T10:28:00,pth,8.40
2023-03-18T10:30:00,pth,10.80
2023-03-18T10:32:00,pth,10.80
2023-03-18T10:34:00,pth,14.40
2023-03-18T10:36:00,pth,10.80
2023-03-18T10:38:00,pth,10.80
2023-03-18T10:40:00,pth,14.40
2023-03-18T10:42:00,pth,12.00
2023-03-18T10:44:00,pth,10.80
2023-03-18T10:46:00,pth,12.00
2023-03-18T10:47:00,pth,6.00
2023-03-18T10:48:00,pth,8.40
2023-03-18T10:50:00,pth,10.80
2023-03-18T10:52:00,pth,9.60
2023-03-18T10:54:00,pth,10.80
2023-03-18T10:55:00,pth,2.40
2023-03-18T10:57:00,pth,3.60
2023-03-18T10:59:00,pth,6.00
2023-03-18T11:01:00,pth,8.40
2023-03-18T11:03:00,pth,7.20
2023-03-18T11:05:00,pth,7.20
2023-03-18T11:07:00,pth,10.80
2023-03-18T11:09:00,pth,16.80
2023-03-18T11:11:00,pth,15.60
2023-03-18T11:12:00,pth,6.00
2023-03-18T11:13:00,pth,7.20
2023-03-18T11:15:00,pth,14.40
2023-03-18T11:17:00,pth,14.40
2023-03-18T11:19:00,pth,14.40
2023-03-18T11:21:00,pth,14.40
2023-03-18T11:23:00,pth,15.60
2023-03-18T11:25:00,pth,14.40
2023-03-18T11:27:00,pth,15.60
2023-03-18T11:29:00,pth,14.40
2023-03-18T11:30:00,pth,6.00
2023-03-18T11:32:00,pth,12.00
2023-03-18T11:33:00,pth,7.20
2023-03-18T11:35:00,pth,10.80
2023-03-18T11:37:00,pth,14.40
2023-03-18T11:38:00,pth,4.80
2023-03-18T11:39:00,pth,4.80
2023-03-18T11:41:00,pth,13.20
2023-03-18T11:43:00,pth,12.00
2023-03-18T11:45:00,pth,9.60
2023-03-18T11:47:00,pth,14.40
2023-03-18T11:48:00,pth,7.20
2023-03-18T11:50:00,pth,12.00
2023-03-18T11:52:00,pth,12.00
2023-03-18T11:54:00,pth,9.60
2023-03-18T11:55:00,pth,7.20
2023-03-18T11:57:00,pth,9.60
2023-03-18T11:58:00,pth,7.20
2023-03-18T11:59:00,pth,2.40
2023-03-18T12:01:00,pth,14.40
2023-03-18T12:02:00,pth,2.40
2023-03-18T12:04:00,pth,15.60
2023-03-18T12:06:00,pth,6.00
2023-03-18T12:08:00,pth,4.80
2023-03-18T12:10:00,pth,6.00
2023-03-18T12:11:00,pth,2.40
2023-03-18T12:13:00,pth,3.60
2023-03-18T12:14:00,pth,1.20
2023-03-18T12:15:00,pth,1.20
2023-03-18T12:17:00,pth,3.60
2023-03-18T12:19:00,pth,2.40
2023-03-18T12:20:00,pth,2.40
2023-03-18T12:21:00,pth,1.20
2023-03-18T12:23:00,pth,2.40
2023-03-18T12:25:00,pth,3.60
2023-03-18T12:26:00,pth,1.20
2023-03-18T12:27:00,pth,1.20
2023-03-18T12:29:00,pth,2.40
2023-03-18T12:31:00,pth,2.40
2023-03-18T12:33:00,pth,3.60
2023-03-18T12:35:00,pth,2.40
2023-03-18T12:36:00,pth,1.20
2023-03-18T12:38:00,pth,3.60
2023-03-18T12:40:00,pth,2.40
2023-03-18T12:42:00,pth,3.60
2023-03-18T12:44:00,pth,4.80
2023-03-18T12:45:00,pth,2.40
2023-03-18T12:47:00,pth,4.80
2023-03-18T12:49:00,pth,3.60
2023-03-18T12:50:00,pth,2.40
2023-03-18T12:52:00,pth,3.60
2023-03-18T12:53:00,pth,1.20
2023-03-18T12:54:00,pth,2.40
2023-03-18T12:56:00,pth,2.40
2023-03-18T12:57:00,pth,2.40
2023-03-18T12:59:00,pth,2.40
2023-03-18T13:01:00,pth,4.80
2023-03-18T13:03:00,pth,2.40
2023-03-18T13:05:00,pth,3.60
2023-03-18T13:06:00,pth,3.60
2023-03-18T13:07:00,pth,1.20
2023-03-18T13:08:00,pth,3.60
2023-03-18T13:09:00,pth,1.20
2023-03-18T13:11:00,pth,2.40
2023-03-18T13:13:00,pth,3.60
2023-03-18T13:14:00,pth,1.20
2023-03-18T13:16:00,pth,3.60
2023-03-18T13:18:00,pth,3.60
2023-03-18T13:20:00,pth,3.60
2023-03-18T13:22:00,pth,3.60
2023-03-18T13:24:00,pth,1.20
2023-03-18T13:25:00,pth,1.20
2023-03-18T13:27:00,pth,1.20
2023-03-18T13:29:00,pth,2.40
2023-03-18T13:31:00,pth,1.20
2023-03-18T13:33:00,pth,1.20
2023-03-18T13:35:00,pth,2.40
2023-03-18T13:37:00,pth,2.40
2023-03-18T13:39:00,pth,2.40
2023-03-18T13:41:00,pth,1.20
2023-03-18T13:43:00,pth,2.40
2023-03-18T13:45:00,pth,1.20
2023-03-18T13:47:00,pth,2.40
2023-03-18T13:49:00,pth,2.40
2023-03-18T13:51:00,pth,3.60
2023-03-18T13:52:00,pth,2.40
2023-03-18T13:54:00,pth,2.40
2023-03-18T13:56:00,pth,2.40
2023-03-18T13:58:00,pth,1.20
2023-03-18T13:59:00,pth,1.20
2023-03-18T14:00:00,pth,1.20
2023-03-18T14:02:00,pth,1.20
2023-03-18T14:04:00,pth,2.40
2023-03-18T14:06:00,pth,1.20
2023-03-18T14:07:00,pth,1.20
2023-03-18T14:09:00,pth,2.40
2023-03-18T14:11:00,pth,1.20
2023-03-18T14:12:00,pth,1.20
2023-03-18T14:13:00,pth,1.20
2023-03-18T14:15:00,pth,1.20
2023-03-18T14:17:00,pth,2.40
2023-03-18T14:18:00,pth,2.40
2023-03-18T14:19:00,pth,1.20
2023-03-18T14:21:00,pth,3.60
2023-03-18T14:22:00,pth,2.40
2023-03-18T14:23:00,pth,1.20
2023-03-18T14:25:00,pth,2.40
2023-03-18T14:27:00,pth,2.40
2023-03-18T14:30:00,pth,2.40
2023-03-18T14:33:00,pth,2.40
2023-03-18T14:34:00,pth,1.20
2023-03-18T14:37:00,pth,2.40
2023-03-18T14:39:00,pth,1.20
2023-03-18T14:41:00,pth,1.20
2023-03-18T14:43:00,pth,1.20
2023-03-18T14:44:00,pth,1.20
2023-03-18T14:46:00,pth,1.20
2023-03-18T14:48:00,pth,3.60
2023-03-18T14:50:00,pth,3.60
2023-03-18T14:52:00,pth,3.60
2023-03-18T14:54:00,pth,2.40
2023-03-18T14:56:00,pth,1.20
2023-03-18T14:58:00,pth,1.20
2023-03-18T15:01:00,pth,1.20
2023-03-18T15:03:00,pth,2.40
2023-03-18T15:05:00,pth,1.20
2023-03-18T15:06:00,pth,1.20
2023-03-18T15:08:00,pth,1.20
2023-03-18T15:11:00,pth,1.20
2023-03-18T15:13:00,pth,2.40
2023-03-18T15:16:00,pth,1.20
2023-03-18T15:17:00,pth,1.20
2023-03-18T15:19:00,pth,3.60
2023-03-18T15:20:00,pth,2.40
2023-03-18T15:21:00,pth,1.20
2023-03-18T15:23:00,pth,3.60
2023-03-18T15:25:00,pth,3.60
2023-03-18T15:28:00,pth,2.40
2023-03-18T15:30:00,pth,2.40
2023-03-18T15:33:00,pth,4.80
2023-03-18T15:35:00,pth,1.20
2023-03-18T15:37:00,pth,2.40
2023-03-18T15:38:00,pth,1.20
2023-03-18T15:40:00,pth,3.60
2023-03-18T15:42:00,pth,2.40
2023-03-18T15:44:00,pth,3.60
2023-03-18T15:45:00,pth,1.20
2023-03-18T15:47:00,pth,2.40
2023-03-18T15:48:00,pth,1.20
2023-03-18T15:50:00,pth,1.20
2023-03-18T15:52:00,pth,3.60
2023-03-18T15:54:00,pth,4.80
2023-03-18T15:55:00,pth,2.40
2023-03-18T15:56:00,pth,1.20
2023-03-18T15:58:00,pth,3.60
2023-03-18T15:59:00,pth,1.20
2023-03-18T16:01:00,pth,1.20
2023-03-18T16:02:00,pth,1.20
2023-03-18T16:04:00,pth,1.20
2023-03-18T16:05:00,pth,1.20
2023-03-18T16:07:00,pth,1.20
2023-03-18T16:08:00,pth,1.20
2023-03-18T16:10:00,pth,1.20
2023-03-18T16:12:00,pth,1.20
2023-03-18T16:15:00,pth,2.40
2023-03-18T16:17:00,pth,1.20
2023-03-18T16:19:00,pth,1.20
2023-03-18T16:20:00,pth,1.20
2023-03-18T16:22:00,pth,2.40
2023-03-18T16:23:00,pth,2.40
2023-03-18T16:25:00,pth,8.40
2023-03-18T16:27:00,pth,14.40
2023-03-18T16:29:00,pth,15.60
2023-03-18T16:30:00,pth,7.20
2023-03-18T16:32:00,pth,14.40
2023-03-18T16:33:00,pth,6.00
2023-03-18T16:34:00,pth,7.20
2023-03-18T16:36:00,pth,14.40
2023-03-18T16:38:00,pth,15.60
2023-03-18T16:39:00,pth,6.00
2023-03-18T16:41:00,pth,15.60
2023-03-18T16:43:00,pth,10.80
2023-03-18T16:45:00,pth,10.80
2023-03-18T16:46:00,pth,7.20
2023-03-18T16:48:00,pth,8.40
2023-03-18T16:49:00,pth,7.20
2023-03-18T16:51:00,pth,13.20
2023-03-18T16:53:00,pth,8.40
2023-03-18T16:54:00,pth,7.20
2023-03-18T16:55:00,pth,4.80
2023-03-18T16:57:00,pth,9.60
2023-03-18T16:58:00,pth,7.20
2023-03-18T16:59:00,pth,2.40
2023-03-18T17:01:00,pth,12.00
2023-03-18T17:03:00,pth,8.40
2023-03-18T17:04:00,pth,6.00
2023-03-18T17:06:00,pth,12.00
2023-03-18T17:08:00,pth,10.80
2023-03-18T17:10:00,pth,8.40
2023-03-18T17:11:00,pth,6.00
2023-03-18T17:12:00,pth,8.40
2023-03-18T17:14:00,pth,7.20
2023-03-18T17:16:00,pth,13.20
2023-03-18T17:18:00,pth,8.40
2023-03-18T17:20:00,pth,9.60
2023-03-18T17:22:00,pth,13.20
2023-03-18T17:23:00,pth,3.60
2023-03-18T17:25:00,pth,4.80
2023-03-18T17:27:00,pth,3.60
2023-03-18T17:29:00,pth,2.40
2023-03-18T17:30:00,pth,2.40
2023-03-18T17:32:00,pth,2.40
2023-03-18T17:34:00,pth,2.40
2023-03-18T17:36:00,pth,3.60
2023-03-18T17:38:00,pth,3.60
2023-03-18T17:39:00,pth,1.20
2023-03-18T17:41:00,pth,2.40
2023-03-18T17:42:00,pth,3.60
2023-03-18T17:43:00,pth,3.60
2023-03-18T17:45:00,pth,7.20
2023-03-18T17:47:00,pth,6.00
2023-03-18T17:48:00,pth,2.40
2023-03-18T17:50:00,pth,4.80
2023-03-18T17:52:00,pth,3.60
2023-03-18T17:54:00,pth,4.80
2023-03-18T17:55:00,pth,1.20
2023-03-18T17:56:00,pth,2.40
2023-03-18T17:58:00,pth,4.80
2023-03-18T18:00:00,pth,3.60
2023-03-18T18:01:00,pth,3.60
2023-03-18T18:03:00,pth,6.00
2023-03-18T18:04:00,pth,2.40
2023-03-18T18:06:00,pth,4.80
2023-03-18T18:07:00,pth,1.20
2023-03-18T18:08:00,pth,1.20
2023-03-18T18:10:00,pth,2.40
2023-03-18T18:12:00,pth,1.20
2023-03-18T18:14:00,pth,2.40
2023-03-18T18:16:00,pth,1.20
2023-03-18T18:18:00,pth,2.40
2023-03-18T18:20:00,pth,1.20
2023-03-18T18:21:00,pth,1.20
2023-03-18T18:23:00,pth,1.20
2023-03-18T18:24:00,pth,1.20
2023-03-18T18:26:00,pth,1.20
2023-03-18T18:27:00,pth,1.20
2023-03-18T18:29:00,pth,1.20
2023-03-18T18:30:00,pth,1.20
2023-03-18T18:32:00,pth,1.20
2023-03-18T18:34:00,pth,3.60
2023-03-18T18:35:00,pth,1.20
2023-03-18T18:37:00,pth,3.60
2023-03-18T18:39:00,pth,4.80
2023-03-18T18:40:00,pth,1.20
2023-03-18T18:42:00,pth,1.20
2023-03-18T18:44:00,pth,2.40
2023-03-18T18:47:00,pth,2.40
2023-03-18T18:49:00,pth,2.40
2023-03-18T18:51:00,pth,2.40
2023-03-18T18:53:00,pth,1.20
2023-03-18T18:55:00,pth,2.40
2023-03-18T18:57:00,pth,2.40
2023-03-18T18:59:00,pth,3.60
2023-03-18T19:00:00,pth,1.20
2023-03-18T19:02:00,pth,2.40
2023-03-18T19:03:00,pth,2.40
2023-03-18T19:04:00,pth,1.20
2023-03-18T19:06:00,pth,4.80
2023-03-18T19:07:00,pth,4.80
2023-03-18T19:10:00,pth,2.40
2023-03-18T19:11:00,pth,1.20
2023-03-18T19:13:00,pth,2.40
2023-03-18T19:15:00,pth,4.80
2023-03-18T19:17:00,pth,8.40
2023-03-18T19:19:00,pth,8.40
2023-03-18T19:21:00,pth,7.20
2023-03-18T19:23:00,pth,7.20
2023-03-18T19:25:00,pth,7.20
2023-03-18T19:26:00,pth,3.60
2023-03-18T19:28:00,pth,15.60
2023-03-18T19:29:00,pth,8.40
2023-03-18T19:31:00,pth,14.40
2023-03-18T19:32:00,pth,8.40
2023-03-18T19:34:00,pth,19.20
2023-03-18T19:36:00,pth,15.60
2023-03-18T19:38:00,pth,16.80
2023-03-18T19:39:00,pth,8.40
2023-03-18T19:40:00,pth,8.40
2023-03-18T19:42:00,pth,15.60
2023-03-18T19:44:00,pth,14.40
2023-03-18T19:45:00,pth,8.40
2023-03-18T19:47:00,pth,16.80
2023-03-18T19:49:00,pth,15.60
2023-03-18T19:50:00,pth,8.40
2023-03-18T19:52:00,pth,16.80
2023-03-18T19:54:00,pth,15.60
2023-03-18T19:56:00,pth,15.60
2023-03-18T19:58:00,pth,8.40
2023-03-18T19:59:00,pth,8.40
2023-03-18T20:01:00,pth,15.60
2023-03-18T20:02:00,pth,4.80
2023-03-18T20:03:00,pth,3.60
2023-03-18T20:05:00,pth,14.40
2023-03-18T20:06:00,pth,7.20
2023-03-18T20:07:00,pth,8.40
2023-03-18T20:09:00,pth,6.00
2023-03-18T20:10:00,pth,7.20
2023-03-18T20:12:00,pth,15.60
2023-03-18T20:14:00,pth,14.40
2023-03-18T20:16:00,pth,6.00
2023-03-18T20:18:00,pth,16.80
2023-03-18T20:20:00,pth,13.20
2023-03-18T20:21:00,pth,2.40
2023-03-18T20:23:00,pth,13.20
2023-03-18T20:25:00,pth,13.20
2023-03-18T20:27:00,pth,4.80
2023-03-18T20:29:00,pth,3.60
2023-03-18T20:31:00,pth,3.60
2023-03-18T20:32:00,pth,2.40
2023-03-18T20:34:00,pth,4.80
2023-03-18T20:36:00,pth,13.20
2023-03-18T20:38:00,pth,8.40
2023-03-18T20:39:00,pth,7.20
2023-03-18T20:41:00,pth,9.60
2023-03-18T20:42:00,pth,7.20
2023-03-18T20:43:00,pth,3.60
2023-03-18T20:45:00,pth,14.40
2023-03-18T20:46:00,pth,3.60
2023-03-18T20:48:00,pth,14.40
2023-03-18T20:49:00,pth,3.60
2023-03-18T20:51:00,pth,10.80
2023-03-18T20:52:00,pth,12.00
2023-03-18T20:54:00,pth,6.00
2023-03-18T20:56:00,pth,9.60
2023-03-18T20:57:00,pth,8.40
2023-03-18T20:58:00,pth,4.80
2023-03-18T21:00:00,pth,13.20
2023-03-18T21:01:00,pth,2.40
2023-03-18T21:03:00,pth,13.20
2023-03-18T21:05:00,pth,13.20
2023-03-18T21:06:00,pth,1.20
2023-03-18T21:07:00,pth,2.40
2023-03-18T21:09:00,pth,4.80
2023-03-18T21:10:00,pth,1.20
2023-03-18T21:12:00,pth,3.60
2023-03-18T21:14:00,pth,2.40
2023-03-18T21:15:00,pth,1.20
2023-03-18T21:17:00,pth,2.40
2023-03-18T21:19:00,pth,1.20
2023-03-18T21:20:00,pth,1.20
2023-03-18T21:21:00,pth,1.20
2023-03-18T21:22:00,pth,2.40
2023-03-18T21:24:00,pth,2.40
2023-03-18T21:26:00,pth,1.20
2023-03-18T21:27:00,pth,1.20
2023-03-18T21:29:00,pth,2.40
2023-03-18T21:30:00,pth,1.20
2023-03-18T21:32:00,pth,2.40
2023-03-18T21:33:00,pth,1.20
2023-03-18T21:34:00,pth,1.20
2023-03-18T21:36:00,pth,2.40
2023-03-18T21:38:00,pth,2.40
2023-03-18T21:39:00,pth,2.40
2023-03-18T21:41:00,pth,4.80
2023-03-18T21:42:00,pth,2.40
2023-03-18T21:44:00,pth,4.80
2023-03-18T21:46:00,pth,2.40
2023-03-18T21:48:00,pth,2.40
2023-03-18T21:50:00,pth,2.40
2023-03-18T21:51:00,pth,1.20
2023-03-18T21:53:00,pth,1.20
2023-03-18T21:55:00,pth,2.40
2023-03-18T21:56:00,pth,1.20
2023-03-18T21:58:00,pth,2.40
2023-03-18T21:59:00,pth,1.20
2023-03-18T22:01:00,pth,1.20
2023-03-18T22:03:00,pth,2.40
2023-03-18T22:05:00,pth,2.40
2023-03-18T22:08:00,pth,4.80
2023-03-18T22:10:00,pth,3.60
2023-03-18T22:12:00,pth,4.80
2023-03-18T22:14:00,pth,3.60
2023-03-18T22:16:00,pth,1.20
2023-03-18T22:17:00,pth,1.20
2023-03-18T22:18:00,pth,1.20
2023-03-18T22:20:00,pth,2.40
2023-03-18T22:22:00,pth,2.40
2023-03-18T22:24:00,pth,2.40
2023-03-18T22:25:00,pth,1.20
2023-03-18T22:27:00,pth,1.20
2023-03-18T22:29:00,pth,2.40
2023-03-18T22:30:00,pth,1.20
2023-03-18T22:32:00,pth,2.40
2023-03-18T22:33:00,pth,1.20
2023-03-18T22:35:00,pth,3.60
2023-03-18T22:36:00,pth,2.40
2023-03-18T22:37:00,pth,1.20
2023-03-18T22:39:00,pth,3.60
2023-03-18T22:41:00,pth,2.40
2023-03-18T22:43:00,pth,2.40
2023-03-18T22:44:00,pth,1.20
2023-03-18T22:46:00,pth,2.40
2023-03-18T22:48:00,pth,1.20
2023-03-18T22:49:00,pth,1.20
2023-03-18T22:51:00,pth,2.40
2023-03-18T22:52:00,pth,1.20
2023-03-18T22:53:00,pth,1.20
2023-03-18T22:55:00,pth,1.20
2023-03-18T22:56:00,pth,1.20
2023-03-18T22:58:00,pth,3.60
2023-03-18T23:00:00,pth,3.60
2023-03-18T23:02:00,pth,4.80
2023-03-18T23:04:00,pth,3.60
2023-03-18T23:06:00,pth,4.80
2023-03-18T23:07:00,pth,1.20
2023-03-18T23:09:00,pth,2.40
2023-03-18T23:11:00,pth,2.40
2023-03-18T23:13:00,pth,2.40
2023-03-18T23:14:00,pth,1.20
2023-03-18T23:16:00,pth,1.20
2023-03-18T23:18:00,pth,2.40
2023-03-18T23:19:00,pth,1.20
2023-03-18T23:21:00,pth,2.40